Погода в Криничном

Украина / Одесская область     45°32′09″N   28°40′04″E
темп.,
°C
ветер,
м/с
пор.,
м/с
влажн.,
%
обл.,
%
осадки,
мм/ч
давл.,
гПа
погр.,
м
5 августа, чт
чт500:00+21всв3388100 1.1 101580
03:00+22ююв46879 1.1 1014135
06:00+22ююв35926 0.0 1014127
09:00+26ююв567264 0.0 1013676
12:00+31ююв564846 0.0 10111201
15:00+32ююв88445 0.0 10091138
18:00+30ююв910514 0.0 1007669
21:00+25юв8147665 0.0 1007567
6 августа, пт
пт600:00+25ю71481100 0.0 1007740
03:00+23юв586890 0.5 1004169
06:00+22юв348899 0.0 1004101
09:00+27ю7116994 0.0 1004886
12:00+31ююз7849100 0.0 10031267
15:00+31з6745100 0.0 10031233
18:00+30з344699 0.0 1002346
21:00+27сз11538 0.0 100311
7 августа, сб
сб700:00+23с9166873 0.1 1005443
03:00+21ссз51173100 1.0 1007320
06:00+19ссз101581100 0.8 1007372
09:00+19ссз81278100 0.9 1010419
12:00+22с7959100 0.0 1011820
15:00+27ссз774178 0.0 10111573
18:00+27с67375 0.0 10121381
21:00+22с48580 0.0 1013268
8 августа, вс
вс800:00+20с47660 0.0 1014162
03:00+19с47650 0.0 1014142
06:00+17с46660 0.0 1015128
09:00+22ссв45490 0.0 1016457
12:00+27с33310 0.0 1016986
15:00+30ссз34290 0.0 10151153
18:00+30с23320 0.0 10141117
21:00+26ссв234211 0.0 101514
9 августа, пн
пн900:00+22в34484 0.0 101660
03:00+21в22550 0.0 101638
06:00+21св11540 0.0 101636
09:00+25всв11400 0.0 1016253
12:00+30с11310 0.0 1016925
15:00+33с23273 0.0 10151406
18:00+34ссв442956 0.0 10151531
21:00+26юв45435 0.0 101668